NEODyS-2

Near Earth Objects - Dynamic Site
NEODyS ∴ Observatories ∴ Site 691 ∴ Obs & residuals
Contact »
691  ▹ 
OBSERVATIONS AND RESIDUALS

691-Steward Observatory, Kitt Peak-Spacewatch

Detections | Residuals | Detections & Residuals

[1-200] [201-400] [401-600] [601-800] [801-1000] [1001-1200] [1201-1400] [1401-1600] [1601-1800] [1801-2000] [2001-2200] [2201-2400] [2401-2600] [2601-2800] [2801-3000] [3001-3200] [3201-3400] [3401-3600] [3601-3800] [3801-4000] [4001-4200] [4201-4400] [4401-4600] [4601-4800] [4801-5000] [5001-5200] [5201-5400] [5401-5600] [5601-5800] [5801-6000] [6001-6200] [6201-6400] [6401-6600] [6601-6800] [6801-7000] [7001-7200] [7201-7400] [7401-7600] [7601-7800] [7801-8000] [8001-8200] [8201-8400] [8401-8600] [8601-8800] [8801-9000] [9001-9200] [9201-9400] [9401-9600] [9601-9800] [9801-10000] [10001-10200] [10201-10400] [10401-10600] [10601-10800] [10801-11000] [11001-11200] [11201-11400] [11401-11600] [11601-11800] [11801-12000] [12001-12200] [12201-12400] [12401-12600] [12601-12800] [12801-13000] [13001-13200] [13201-13400] [13401-13600] [13601-13800] [13801-14000] [14001-14200] [14201-14400] [14401-14600] [14601-14800] [14801-15000] [15001-15200] [15201-15400] [15401-15600] [15601-15800] [15801-16000] [16001-16200] [16201-16400] [16401-16600] [16601-16800] [16801-17000] [17001-17200] [17201-17400] [17401-17600] [17601-17800] [17801-18000] [18001-18200] [18201-18400] [18401-18600] [18601-18800] [18801-19000] [19001-19200] [19201-19400] [19401-19600] [19601-19800] [19801-20000] [20001-20200] [20201-20400] [20401-20600] [20601-20800] [20801-21000] [21001-21200] [21201-21400] [21401-21600] [21601-21800] [21801-22000] [22001-22200] [22201-22400] [22401-22600] [22601-22800] [22801-23000] [23001-23200] [23201-23400] [23401-23600] [23601-23800] [23801-24000] [24001-24200] [24201-24400] [24401-24600] [24601-24800] [24801-25000] [25001-25200] [25201-25400] [25401-25600] [25601-25800] [25801-26000] [26001-26200] [26201-26400] [26401-26600] [26601-26800] [26801-27000] [27001-27200] [27201-27400] [27401-27600] [27601-27800] [27801-28000] [28001-28200] [28201-28400] [28401-28600] [28601-28800] [28801-29000] [29001-29200] [29201-29400] [29401-29600] [29601-29800] [29801-30000] [30001-30200] [30201-30400] [30401-30600] [30601-30800] [30801-31000] [31001-31200] [31201-31400] [31401-31600] [31601-31800] [31801-32000] [32001-32200] [32201-32400] [32401-32600] [32601-32800] [32801-33000] [33001-33200] [33201-33400] [33401-33600] [33601-33800] [33801-34000] [34001-34200] [34201-34400] [34401-34600] [34601-34800] [34801-35000] [35001-35200] [35201-35400] [35401-35600] [35601-35800] [35801-36000] [36001-36200] [36201-36400] [36401-36600] [36601-36800] [36801-37000] [37001-37200] [37201-37400] [37401-37600] [37601-37800] [37801-38000] [38001-38200] [38201-38400] [38401-38600] [38601-38800] [38801-39000] [39001-39200] [39201-39400] [39401-39600] [39601-39800] [39801-40000] [40001-40200] [40201-40400] [40401-40600] [40601-40800] [40801-41000] [41001-41200] [41201-41400] [41401-41600] [41601-41800] [41801-42000] [42001-42200] [42201-42400] [42401-42600] [42601-42800] [42801-43000] [43001-43200] [43201-43400] [43401-43600] [43601-43800] [43801-44000] [44001-44200] [44201-44400] [44401-44600] [44601-44800] [44801-45000] [45001-45200] [45201-45400] [45401-45600] [45601-45800] [45801-46000] [46001-46200] [46201-46400] [46401-46600] [46601-46800] [46801-47000] [47001-47200] [47201-47400] [47401-47600] [47601-47800] [47801-48000] [48001-48200] [48201-48400] [48401-48600] [48601-48800] [48801-49000] [49001-49200] [49201-49400] [49401-49600] [49601-49800] [49801-50000] [50001-50200] [50201-50400] [50401-50600] [50601-50741]

Designation T Tech N Date Right Ascension Declination Apparent Magnitude Star Catalog Site code χ Used A Used M
yr-mo-day precision hr:min:sec precision rms F bias residual deg min sec precision rms F bias residual mag/col rms residual
2017XL60 O C K 2017-12-21.39371 1.000E-05 07:17:16.440 1.500E-01 0.500 F -0.080 0.256 +18° 18' 38.30" 1.000E-01 0.500 F 0.160 0.171 o 691 0.66 Yes No
2017XL60 O C K 2017-12-21.41361 1.000E-05 07:17:16.450 1.500E-01 0.500 F -0.080 -0.091 +18° 17' 53.80" 1.000E-01 0.500 F 0.160 -0.335 o 691 0.74 Yes No
2000EW70 O C H 2017-12-23.09497 1.000E-05 03:13:14.700 1.500E-01 0.500 F -0.346 0.047 -13° 08' 14.10" 1.000E-01 0.500 F 0.138 -0.216 20.6 R 0.70 0.97 o 691 0.44 Yes Yes
2010MW O C K 2017-12-23.09875 1.000E-05 01:37:57.800 1.500E-01 0.500 F -0.392 -0.668 +13° 04' 18.10" 1.000E-01 0.500 F 0.198 -0.075 20.5 R 0.70 0.03 o 691 1.35 Yes Yes
2017SV20 O C K 2017-12-23.10084 1.000E-05 02:51:18.290 1.500E-01 0.500 F -0.390 0.125 -14° 47' 32.00" 1.000E-01 0.500 F 0.114 -0.332 21.1 R 0.70 0.30 o 691 0.71 Yes Yes
2000EW70 O C H 2017-12-23.10425 1.000E-05 03:13:15.010 1.500E-01 0.500 F -0.346 -0.437 -13° 07' 43.90" 1.000E-01 0.500 F 0.138 0.326 20.5 R 0.70 0.87 o 691 1.09 Yes Yes
2010MW O C K 2017-12-23.10650 1.000E-05 01:37:58.970 1.500E-01 0.500 F -0.392 -0.217 +13° 04' 12.80" 1.000E-01 0.500 F 0.198 0.289 19.9 R 0.70 -0.57 o 691 0.73 Yes Yes
2017SV20 O C K 2017-12-23.11007 1.000E-05 02:51:17.830 1.500E-01 0.500 F -0.390 -0.257 -14° 47' 18.70" 1.000E-01 0.500 F 0.114 0.022 o 691 0.52 Yes No
2000EW70 O C H 2017-12-23.11348 1.000E-05 03:13:15.390 1.500E-01 0.500 F -0.346 0.188 -13° 07' 14.40" 1.000E-01 0.500 F 0.138 0.314 20.5 R 0.70 0.87 o 691 0.74 Yes Yes
2010MW O C K 2017-12-23.11580 1.000E-05 01:38:00.370 1.500E-01 0.500 F -0.392 0.270 +13° 04' 05.70" 1.000E-01 0.500 F 0.198 -0.010 19.7 R 0.70 -0.77 o 691 0.54 Yes Yes
2017SV20 O C K 2017-12-23.12123 1.000E-05 02:51:17.340 1.500E-01 0.500 F -0.390 0.250 -14° 47' 03.30" 1.000E-01 0.500 F 0.114 -0.239 o 691 0.69 Yes No
2017UZ4 O C H 2017-12-23.13426 1.000E-05 04:51:06.010 1.500E-01 0.500 F -0.195 -0.088 -01° 34' 37.80" 1.000E-01 0.500 F 0.095 -0.178 20.3 R 0.70 0.13 o 691 0.40 Yes Yes
2017UZ4 O C H 2017-12-23.14824 1.000E-05 04:51:05.760 1.500E-01 0.500 F -0.195 0.268 -01° 34' 37.50" 1.000E-01 0.500 F 0.095 -0.147 20.7 R 0.70 0.53 o 691 0.61 Yes Yes
2017UZ4 O C H 2017-12-23.16176 1.000E-05 04:51:05.470 1.500E-01 0.500 F -0.195 -0.060 -01° 34' 37.00" 1.000E-01 0.500 F 0.095 0.086 20.5 R 0.70 0.33 o 691 0.21 Yes Yes
2017YO1 O C 2017-12-23.23166 1.000E-05 05:20:05.520 1.500E-01 0.500 F -0.248 -0.375 -04° 46' 41.70" 1.000E-01 0.500 F 0.075 -0.130 20.2 V 0.70 -0.19 o 691 0.81 Yes Yes
2017YO1 O C 2017-12-23.23858 1.000E-05 05:20:06.540 1.500E-01 0.500 F -0.248 -0.508 -04° 45' 56.30" 1.000E-01 0.500 F 0.075 -0.553 20.2 V 0.70 -0.19 o 691 1.54 Yes Yes
2017YO1 O C 2017-12-23.24551 1.000E-05 05:20:07.600 1.500E-01 0.500 F -0.248 -0.030 -04° 45' 10.00" 1.000E-01 0.500 F 0.075 -0.124 20.6 V 0.70 0.21 o 691 0.26 Yes Yes
2017XA2 O C 2017-12-23.27589 1.000E-05 04:37:45.400 1.500E-01 0.500 F -0.053 -0.259 +06° 30' 26.10" 1.000E-01 0.500 F 0.355 -0.037 21.2 V 0.70 -0.43 o 691 0.53 Yes Yes
2017XA2 O C 2017-12-23.28303 1.000E-05 04:37:44.590 1.500E-01 0.500 F -0.053 0.276 +06° 30' 35.00" 1.000E-01 0.500 F 0.355 -0.399 21.8 V 0.70 0.17 o 691 0.97 Yes Yes
2017XA2 O C 2017-12-23.29017 1.000E-05 04:37:43.700 1.500E-01 0.500 F -0.053 -0.388 +06° 30' 45.80" 1.000E-01 0.500 F 0.355 1.143 21.2 V 0.70 -0.43 o 691 2.42 Yes Yes
2017XB1 O C 2017-12-23.31533 1.000E-05 03:14:24.400 1.500E-01 0.500 F -0.168 0.008 +05° 05' 09.40" 1.000E-01 0.500 F 0.261 0.034 20.2 V 0.70 0.04 o 691 0.07 Yes Yes
2017XB1 O C 2017-12-23.32373 1.000E-05 03:14:23.960 1.500E-01 0.500 F -0.168 0.012 +05° 05' 42.90" 1.000E-01 0.500 F 0.261 -0.255 20.0 V 0.70 -0.16 o 691 0.52 Yes Yes
2017XB1 O C 2017-12-23.33203 1.000E-05 03:14:23.510 1.500E-01 0.500 F -0.168 -0.298 +05° 06' 17.30" 1.000E-01 0.500 F 0.261 0.757 20.1 V 0.70 -0.06 o 691 1.65 Yes Yes
2017XH62 O C 2017-12-23.44117 1.000E-05 10:19:29.420 1.500E-01 0.500 F 0.059 -0.422 +15° 05' 26.10" 1.000E-01 0.500 F 0.167 0.139 20.6 V 0.70 -0.19 o 691 0.89 Yes Yes
2017XH62 O C 2017-12-23.44906 1.000E-05 10:19:31.120 1.500E-01 0.500 F 0.059 0.366 +15° 05' 26.00" 1.000E-01 0.500 F 0.167 0.336 20.7 V 0.70 -0.08 o 691 1.00 Yes Yes
2017XH62 O C 2017-12-23.45686 1.000E-05 10:19:32.780 1.500E-01 0.500 F 0.059 0.852 +15° 05' 25.70" 1.000E-01 0.500 F 0.167 0.338 20.7 V 0.70 -0.08 o 691 1.84 Yes Yes
1998KV2 O C 2017-12-23.52445 1.000E-05 13:04:38.670 1.500E-01 0.500 F 0.267 -0.424 +16° 25' 57.50" 1.000E-01 0.500 F 0.271 0.185 18.5 V 0.70 0.21 o 691 0.93 Yes Yes
1998KV2 O C 2017-12-23.53120 1.000E-05 13:04:40.360 1.500E-01 0.500 F 0.267 0.087 +16° 25' 53.10" 1.000E-01 0.500 F 0.271 -0.137 18.5 V 0.70 0.21 o 691 0.32 Yes Yes
1998KV2 O C 2017-12-23.53795 1.000E-05 13:04:42.000 1.500E-01 0.500 F 0.267 -0.107 +16° 25' 49.20" 1.000E-01 0.500 F 0.271 0.047 18.4 V 0.70 0.11 o 691 0.24 Yes Yes
2000EW70 O C K 2017-12-25.07491 1.000E-05 03:14:55.410 1.500E-01 0.500 F -0.354 0.090 -11° 25' 56.80" 1.000E-01 0.500 F 0.100 -0.039 21.0 R 0.70 1.24 o 691 0.20 Yes Yes
2010MW O C K 2017-12-25.07908 1.000E-05 01:42:53.940 1.500E-01 0.500 F -0.366 0.238 +12° 41' 12.70" 1.000E-01 0.500 F 0.206 0.186 o 691 0.61 Yes No
2017RH15 O C K 2017-12-25.08503 1.000E-05 02:06:12.650 1.500E-01 0.500 F -0.351 -0.021 +00° 09' 02.30" 1.000E-01 0.500 F 0.287 -0.099 o 691 0.21 Yes No
2000EW70 O C K 2017-12-25.08915 1.000E-05 03:14:56.000 1.500E-01 0.500 F -0.354 0.307 -11° 25' 15.20" 1.000E-01 0.500 F 0.100 -0.512 20.5 R 0.70 0.74 o 691 1.20 Yes Yes
2010MW O C K 2017-12-25.09326 1.000E-05 01:42:55.960 1.500E-01 0.500 F -0.366 -0.157 +12° 41' 03.40" 1.000E-01 0.500 F 0.206 0.308 o 691 0.69 Yes No
2017RH15 O C K 2017-12-25.09921 1.000E-05 02:06:17.650 1.500E-01 0.500 F -0.351 0.185 +00° 09' 50.30" 1.000E-01 0.500 F 0.287 0.149 o 691 0.48 Yes No
2000EW70 O C K 2017-12-25.10333 1.000E-05 03:14:56.610 1.500E-01 0.500 F -0.354 1.001 -11° 24' 32.40" 1.000E-01 0.500 F 0.100 0.371 20.5 R 0.70 0.74 o 691 2.14 Yes Yes
2010MW O C K 2017-12-25.10744 1.000E-05 01:42:58.020 1.500E-01 0.500 F -0.366 0.049 +12° 40' 53.80" 1.000E-01 0.500 F 0.206 0.138 o 691 0.29 Yes No
2017RH15 O C K 2017-12-25.11340 1.000E-05 02:06:22.610 1.500E-01 0.500 F -0.351 -0.139 +00° 10' 37.40" 1.000E-01 0.500 F 0.287 -0.538 o 691 1.13 Yes No
2014WG365 O C K 2017-12-26.07302 1.000E-05 01:57:40.610 1.500E-01 0.500 F -0.309 -0.455 +19° 34' 49.70" 1.000E-01 0.500 F 0.315 -0.397 19.3 R 0.70 -0.84 o 691 1.21 Yes Yes
1998FR11 O C 2017-12-26.07757 1.000E-05 03:11:46.050 1.500E-01 0.500 F -0.178 -0.256 +09° 02' 16.20" 1.000E-01 0.500 F 0.267 0.852 20.2 V 0.70 -0.67 o 691 1.78 Yes Yes
2017XB1 O C 2017-12-26.07757 1.000E-05 03:12:50.400 1.500E-01 0.500 F -0.119 0.081 +08° 19' 04.90" 1.000E-01 0.500 F 0.312 0.174 20.1 V 0.70 -0.02 o 691 0.39 Yes Yes
2014WG365 O C K 2017-12-26.08443 1.000E-05 01:57:38.920 1.500E-01 0.500 F -0.309 0.078 +19° 35' 13.50" 1.000E-01 0.500 F 0.315 0.057 19.4 R 0.70 -0.74 o 691 0.19 Yes Yes
1998FR11 O C 2017-12-26.08899 1.000E-05 03:11:45.770 1.500E-01 0.500 F -0.178 -0.007 +09° 02' 17.40" 1.000E-01 0.500 F 0.267 0.546 20.4 V 0.70 -0.47 o 691 1.09 Yes Yes
2017XB1 O C 2017-12-26.08899 1.000E-05 03:12:49.880 1.500E-01 0.500 F -0.119 -0.160 +08° 19' 54.90" 1.000E-01 0.500 F 0.312 -0.122 20.1 V 0.70 -0.02 o 691 0.41 Yes Yes
2014WG365 O C K 2017-12-26.09582 1.000E-05 01:57:37.180 1.500E-01 0.500 F -0.309 -0.124 +19° 35' 36.60" 1.000E-01 0.500 F 0.315 -0.118 19.1 R 0.70 -1.04 o 691 0.34 Yes Yes
1998FR11 O C 2017-12-26.10038 1.000E-05 03:11:45.380 1.500E-01 0.500 F -0.178 -1.392 +09° 02' 18.00" 1.000E-01 0.500 F 0.267 -0.355 20.5 V 0.70 -0.37 o 691 2.88 Yes Yes
2017XB1 O C 2017-12-26.10038 1.000E-05 03:12:49.370 1.500E-01 0.500 F -0.119 -0.163 +08° 20' 44.90" 1.000E-01 0.500 F 0.312 -0.275 20.3 V 0.70 0.18 o 691 0.65 Yes Yes
2017XL2 O C K 2017-12-26.10999 1.000E-05 04:20:35.650 1.500E-01 0.500 F -0.232 0.091 +19° 23' 44.60" 1.000E-01 0.500 F 0.272 0.001 19.5 R 0.70 -0.31 o 691 0.18 Yes Yes
2017XL2 O C 2017-12-26.11173 1.000E-05 04:20:35.790 1.500E-01 0.500 F -0.232 -0.053 +19° 23' 40.40" 1.000E-01 0.500 F 0.272 0.054 20.4 V 0.70 0.19 o 691 0.15 Yes Yes
2017XL2 O C K 2017-12-26.11797 1.000E-05 04:20:36.340 1.500E-01 0.500 F -0.232 0.126 +19° 23' 24.80" 1.000E-01 0.500 F 0.272 -0.296 19.4 R 0.70 -0.41 o 691 0.65 Yes Yes
2017XL2 O C K 2017-12-26.12595 1.000E-05 04:20:37.030 1.500E-01 0.500 F -0.232 0.206 +19° 23' 05.50" 1.000E-01 0.500 F 0.272 -0.091 19.6 R 0.70 -0.21 o 691 0.45 Yes Yes
2017OP19 O C K 2017-12-26.15115 1.000E-05 02:34:15.060 1.500E-01 0.500 F -0.253 0.226 -23° 43' 52.40" 1.000E-01 0.500 F 0.248 0.007 o 691 0.46 Yes No
2017OP19 O C K 2017-12-26.15376 1.000E-05 02:34:15.740 1.500E-01 0.500 F -0.253 0.264 -23° 43' 48.00" 1.000E-01 0.500 F 0.248 0.325 o 691 0.85 Yes No
Orthos O C 2017-12-26.21434 1.000E-05 02:35:25.390 1.500E-01 0.500 F -0.253 -0.133 -23° 46' 19.90" 1.000E-01 0.500 F 0.248 0.131 17.4 V 0.70 0.02 o 691 0.37 Yes Yes
2017OP19 O C K 2017-12-26.23536 1.000E-05 02:34:36.960 1.500E-01 0.500 F -0.253 0.985 -23° 41' 40.00" 1.000E-01 0.500 F 0.248 -0.098 o 691 2.00 Yes No
Orthos O C 2017-12-26.23536 1.000E-05 02:35:26.580 1.500E-01 0.500 F -0.253 0.126 -23° 45' 50.00" 1.000E-01 0.500 F 0.248 0.150 17.4 V 0.70 0.02 o 691 0.39 Yes Yes
2017OP19 O C K 2017-12-26.25636 1.000E-05 02:34:42.390 1.500E-01 0.500 F -0.253 0.631 -23° 41' 06.30" 1.000E-01 0.500 F 0.248 0.317 o 691 1.43 Yes No
Orthos O C 2017-12-26.25636 1.000E-05 02:35:27.740 1.500E-01 0.500 F -0.253 -0.071 -23° 45' 20.30" 1.000E-01 0.500 F 0.248 -0.037 17.4 V 0.70 0.02 o 691 0.16 Yes Yes
2017YU7 O C K 2017-12-26.26928 1.000E-05 04:28:14.720 1.500E-01 0.500 F -0.167 -0.606 -16° 19' 54.90" 1.000E-01 0.500 F 0.009 -0.571 o 691 1.67 Yes No
2017YU7 O C K 2017-12-26.28695 1.000E-05 04:28:11.830 1.500E-01 0.500 F -0.167 -0.128 -16° 21' 15.90" 1.000E-01 0.500 F 0.009 0.167 o 691 0.42 Yes No
2017YU7 O C K 2017-12-26.30459 1.000E-05 04:28:08.920 1.500E-01 0.500 F -0.167 -0.088 -16° 22' 37.40" 1.000E-01 0.500 F 0.009 0.170 o 691 0.38 Yes No
2017UZ4 O C H 2017-12-26.31636 1.000E-05 04:50:24.960 1.500E-01 0.500 F -0.202 0.341 -01° 31' 02.40" 1.000E-01 0.500 F 0.158 -0.149 20.4 R 0.70 0.06 o 691 0.75 Yes Yes
2017UZ4 O C H 2017-12-26.32316 1.000E-05 04:50:24.850 1.500E-01 0.500 F -0.202 0.088 -01° 31' 01.30" 1.000E-01 0.500 F 0.158 0.180 20.6 R 0.70 0.26 o 691 0.40 Yes Yes
2017UZ4 O C H 2017-12-26.32998 1.000E-05 04:50:24.760 1.500E-01 0.500 F -0.202 0.128 -01° 31' 00.60" 1.000E-01 0.500 F 0.158 0.105 20.8 R 0.70 0.46 o 691 0.33 Yes Yes
2017YW5 O C K 2017-12-26.33699 1.000E-05 05:35:45.320 1.500E-01 0.500 F -0.086 0.130 -15° 59' 34.70" 1.000E-01 0.500 F 0.029 -0.067 o 691 0.29 Yes No
2017WY12 O C 2017-12-26.34253 1.000E-05 06:08:15.600 1.500E-01 0.500 F 0.016 0.101 -24° 48' 40.20" 1.000E-01 0.500 F 0.002 -0.206 19.9 V 0.70 -0.05 o 691 0.48 Yes Yes
2017YW5 O C K 2017-12-26.34582 1.000E-05 05:35:43.940 1.500E-01 0.500 F -0.086 0.393 -15° 59' 54.40" 1.000E-01 0.500 F 0.029 -0.093 19.3 R 0.70 -1.80 o 691 0.81 Yes Yes
2017WY12 O C 2017-12-26.35130 1.000E-05 06:08:17.070 1.500E-01 0.500 F 0.016 0.073 -24° 48' 43.90" 1.000E-01 0.500 F 0.002 -0.136 19.9 V 0.70 -0.05 o 691 0.32 Yes Yes
2017YW5 O C K 2017-12-26.35459 1.000E-05 05:35:42.510 1.500E-01 0.500 F -0.086 -0.241 -16° 00' 13.80" 1.000E-01 0.500 F 0.029 0.019 19.5 R 0.70 -1.60 o 691 0.48 Yes Yes
2017WY12 O C 2017-12-26.36008 1.000E-05 06:08:18.560 1.500E-01 0.500 F 0.016 0.261 -24° 48' 47.60" 1.000E-01 0.500 F 0.002 -0.112 20.0 V 0.70 0.05 o 691 0.59 Yes Yes
2000QK130 O C H 2017-12-26.37782 1.000E-05 08:21:20.110 1.500E-01 0.500 F -0.017 0.277 +04° 51' 16.20" 1.000E-01 0.500 F 0.120 -0.009 o 691 0.56 Yes No
2000QK130 O C H 2017-12-26.38829 1.000E-05 08:21:19.450 1.500E-01 0.500 F -0.017 0.120 +04° 51' 12.80" 1.000E-01 0.500 F 0.120 0.153 21.2 R 0.70 0.59 o 691 0.39 Yes Yes
2000QK130 O C H 2017-12-26.39878 1.000E-05 08:21:18.790 1.500E-01 0.500 F -0.017 -0.008 +04° 51' 09.30" 1.000E-01 0.500 F 0.120 0.225 21.2 R 0.70 0.59 o 691 0.45 Yes Yes
2006XY O C 2017-12-26.40145 1.000E-05 09:35:40.470 1.500E-01 0.500 F 0.203 -0.337 -22° 24' 17.90" 1.000E-01 0.500 F -0.177 -0.191 19.3 V 0.70 0.10 o 691 0.78 Yes Yes
2006XY O C 2017-12-26.40285 1.000E-05 09:35:40.780 1.500E-01 0.500 F 0.203 0.247 -22° 24' 16.60" 1.000E-01 0.500 F -0.177 0.014 18.7 V 0.70 -0.50 o 691 0.50 Yes Yes
2006XY O C 2017-12-26.40425 1.000E-05 09:35:41.040 1.500E-01 0.500 F 0.203 0.143 -22° 24' 15.50" 1.000E-01 0.500 F -0.177 0.013 18.6 V 0.70 -0.60 o 691 0.29 Yes Yes
2017YQ3 O C 2017-12-26.40909 1.000E-05 09:48:19.730 1.500E-01 0.500 F 0.071 -0.881 +03° 39' 36.90" 1.000E-01 0.500 F 0.228 -0.201 20.9 V 0.70 -0.73 o 691 1.82 Yes Yes
2017YQ3 O C 2017-12-26.41901 1.000E-05 09:48:19.300 1.500E-01 0.500 F 0.071 -0.054 +03° 39' 34.60" 1.000E-01 0.500 F 0.228 0.203 21.3 V 0.70 -0.33 o 691 0.42 Yes Yes
2017YQ3 O C 2017-12-26.42920 1.000E-05 09:48:18.790 1.500E-01 0.500 F 0.071 -0.210 +03° 39' 32.00" 1.000E-01 0.500 F 0.228 0.381 20.7 V 0.70 -0.93 o 691 0.87 Yes Yes
2017VT14 O C H 2017-12-26.43169 1.000E-05 09:42:04.600 1.500E-01 0.500 F 0.244 0.260 -28° 04' 33.40" 1.000E-01 0.500 F 0.026 0.061 18.8 R 0.70 0.01 o 691 0.54 Yes Yes
2017VT14 O C H 2017-12-26.44251 1.000E-05 09:42:04.990 1.500E-01 0.500 F 0.244 -0.801 -28° 03' 54.30" 1.000E-01 0.500 F 0.026 0.530 18.1 R 0.70 -0.69 o 691 1.94 Yes Yes
2017VT14 O C H 2017-12-26.45374 1.000E-05 09:42:05.550 1.500E-01 0.500 F 0.244 0.205 -28° 03' 14.50" 1.000E-01 0.500 F 0.026 0.016 18.6 R 0.70 -0.19 o 691 0.42 Yes Yes
2017YC6 O C K 2017-12-26.48398 1.000E-05 09:36:43.580 1.500E-01 0.500 F 0.136 0.793 +20° 40' 19.00" 1.000E-01 0.500 F 0.333 -0.158 o 691 1.84 Yes No
2017YC6 O C K 2017-12-26.49975 1.000E-05 09:36:26.480 1.500E-01 0.500 F 0.136 0.321 +20° 40' 44.10" 1.000E-01 0.500 F 0.333 -0.577 o 691 1.44 Yes No
2017YC6 O C K 2017-12-26.51552 1.000E-05 09:36:09.590 1.500E-01 0.500 F 0.136 1.351 +20° 41' 10.70" 1.000E-01 0.500 F 0.333 1.162 o 691 3.17 No No
2017UZ4 O C K 2017-12-28.12834 1.000E-05 04:50:11.990 1.500E-01 0.612 F -0.202 0.074 -01° 26' 55.70" 1.000E-01 0.612 F 0.158 -0.068 20.4 R 0.70 -0.04 o 691 0.16 Yes Yes
2017UZ4 O C K 2017-12-28.14676 1.000E-05 04:50:11.810 1.500E-01 0.612 F -0.202 -0.030 -01° 26' 52.70" 1.000E-01 0.612 F 0.158 0.023 20.5 R 0.70 0.06 o 691 0.06 Yes Yes
2017UZ4 O C K 2017-12-28.16519 1.000E-05 04:50:11.630 1.500E-01 0.612 F -0.202 -0.060 -01° 26' 49.60" 1.000E-01 0.612 F 0.158 0.201 20.0 R 0.70 -0.44 o 691 0.34 Yes Yes
2017UZ4 O C K 2017-12-28.30453 1.000E-05 04:50:10.240 1.500E-01 0.612 F -0.202 0.029 -01° 26' 27.50" 1.000E-01 0.612 F 0.158 -0.168 20.8 R 0.70 0.35 o 691 0.28 Yes Yes
2017XD62 O C K 2017-12-28.31152 1.000E-05 03:59:53.490 1.500E-01 0.500 F -0.174 -0.085 +18° 02' 07.40" 1.000E-01 0.500 F 0.173 0.066 o 691 0.22 Yes No
2017UZ4 O C K 2017-12-28.32514 1.000E-05 04:50:10.050 1.500E-01 0.612 F -0.202 0.126 -01° 26' 23.80" 1.000E-01 0.612 F 0.158 0.152 20.6 R 0.70 0.15 o 691 0.32 Yes Yes
2017XD62 O C K 2017-12-28.33173 1.000E-05 03:59:53.070 1.500E-01 0.500 F -0.174 0.002 +18° 01' 33.30" 1.000E-01 0.500 F 0.173 0.093 o 691 0.19 Yes No
2017UZ4 O C K 2017-12-28.34524 1.000E-05 04:50:09.860 1.500E-01 0.612 F -0.202 0.049 -01° 26' 20.10" 1.000E-01 0.612 F 0.158 0.541 o 691 0.89 Yes No
2017XD62 O C K 2017-12-28.35175 1.000E-05 03:59:52.670 1.500E-01 0.500 F -0.174 0.179 +18° 00' 59.40" 1.000E-01 0.500 F 0.173 0.012 o 691 0.36 Yes No
2017YZ1 O C K 2017-12-28.47253 1.000E-05 10:15:05.080 1.500E-01 0.500 F 0.074 -0.117 -08° 01' 28.80" 1.000E-01 0.500 F 0.094 0.107 o 691 0.32 Yes No
2017YZ1 O C K 2017-12-28.48483 1.000E-05 10:15:06.010 1.500E-01 0.500 F 0.074 0.015 -08° 02' 18.50" 1.000E-01 0.500 F 0.094 -0.116 o 691 0.23 Yes No
2017YZ1 O C K 2017-12-28.49716 1.000E-05 10:15:06.930 1.500E-01 0.500 F 0.074 -0.043 -08° 03' 08.30" 1.000E-01 0.500 F 0.094 -0.317 o 691 0.64 Yes No
2017XF62 O C K 2017-12-28.51617 1.000E-05 10:57:43.770 1.500E-01 0.500 F 0.175 0.696 -23° 21' 35.50" 1.000E-01 0.500 F -0.053 0.558 20.0 R 0.70 -0.70 o 691 1.86 Yes Yes
2017XF62 O C K 2017-12-28.53012 1.000E-05 10:57:46.160 1.500E-01 0.500 F 0.175 -0.097 -23° 22' 15.30" 1.000E-01 0.500 F -0.053 -0.471 o 691 1.00 Yes No
2017XF62 O C K 2017-12-28.54412 1.000E-05 10:57:48.660 1.500E-01 0.500 F 0.175 0.405 -23° 22' 52.60" 1.000E-01 0.500 F -0.053 0.866 20.4 R 0.70 -0.31 o 691 1.99 Yes Yes
2012PN28 O C K 2017-12-29.08211 1.000E-05 22:31:47.010 1.500E-01 0.500 F -0.041 0.326 +16° 12' 31.60" 1.000E-01 0.500 F 0.401 0.111 o 691 0.69 Yes No
2012PN28 O C K 2017-12-29.09491 1.000E-05 22:31:48.310 1.500E-01 0.500 F -0.041 0.297 +16° 12' 36.10" 1.000E-01 0.500 F 0.401 0.021 o 691 0.60 Yes No
2012PN28 O C K 2017-12-29.10762 1.000E-05 22:31:49.610 1.500E-01 0.500 F -0.041 0.373 +16° 12' 41.00" 1.000E-01 0.500 F 0.401 0.368 o 691 1.06 Yes No
2017VX1 O C K 2017-12-29.13522 1.000E-05 00:39:06.180 1.500E-01 0.500 F -0.117 0.164 +25° 47' 40.10" 1.000E-01 0.500 F 0.285 0.075 o 691 0.36 Yes No
2017VX1 O C K 2017-12-29.15482 1.000E-05 00:39:06.140 1.500E-01 0.500 F -0.117 0.140 +25° 47' 11.00" 1.000E-01 0.500 F 0.285 0.065 o 691 0.31 Yes No
2017VX1 O C K 2017-12-29.17441 1.000E-05 00:39:06.110 1.500E-01 0.500 F -0.117 0.021 +25° 46' 41.70" 1.000E-01 0.500 F 0.285 -0.006 o 691 0.04 Yes No
2017SS19 O C K 2017-12-29.18021 1.000E-05 01:11:53.590 1.500E-01 0.500 F -0.189 0.080 -05° 04' 05.20" 1.000E-01 0.500 F 0.155 -0.067 o 691 0.21 Yes No
2017NU6 O C K 2017-12-29.18980 1.000E-05 01:35:52.890 1.500E-01 0.500 F -0.195 0.450 -14° 27' 55.50" 1.000E-01 0.500 F 0.305 -0.017 o 691 0.92 Yes No
2017SS19 O C K 2017-12-29.20206 1.000E-05 01:12:00.680 1.500E-01 0.500 F -0.189 0.035 -05° 04' 01.90" 1.000E-01 0.500 F 0.155 0.287 o 691 0.58 Yes No
2017NU6 O C K 2017-12-29.21166 1.000E-05 01:35:59.780 1.500E-01 0.500 F -0.195 0.998 -14° 27' 13.10" 1.000E-01 0.500 F 0.305 0.037 o 691 2.03 Yes No
2017SS19 O C K 2017-12-29.22391 1.000E-05 01:12:07.830 1.500E-01 0.500 F -0.189 0.630 -05° 03' 59.10" 1.000E-01 0.500 F 0.155 0.103 o 691 1.29 Yes No
2017NU6 O C K 2017-12-29.23352 1.000E-05 01:36:06.580 1.500E-01 0.500 F -0.195 0.068 -14° 26' 30.90" 1.000E-01 0.500 F 0.305 -0.179 o 691 0.39 Yes No
2015CV13 O C K 2017-12-29.24997 1.000E-05 07:42:02.800 1.500E-01 0.500 F 0.024 -0.496 +10° 24' 06.70" 1.000E-01 0.500 F 0.133 -0.169 o 691 1.06 Yes No
2000QK130 O C K 2017-12-29.26834 1.000E-05 08:18:23.770 1.500E-01 0.500 F -0.023 -0.014 +04° 36' 13.50" 1.000E-01 0.500 F 0.046 0.001 o 691 0.03 Yes No
2015CV13 O C K 2017-12-29.27978 1.000E-05 07:41:59.760 1.500E-01 0.500 F 0.024 -0.742 +10° 24' 29.50" 1.000E-01 0.500 F 0.133 0.453 o 691 1.75 Yes No
2000QK130 O C K 2017-12-29.29814 1.000E-05 08:18:21.530 1.500E-01 0.500 F -0.023 -0.478 +04° 36' 05.50" 1.000E-01 0.500 F 0.046 0.246 o 691 1.08 Yes No
2015CV13 O C K 2017-12-29.30958 1.000E-05 07:41:56.770 1.500E-01 0.500 F 0.024 -0.043 +10° 24' 51.20" 1.000E-01 0.500 F 0.133 0.019 o 691 0.09 Yes No
2000QK130 O C K 2017-12-29.32796 1.000E-05 08:18:19.300 1.500E-01 0.500 F -0.023 -0.371 +04° 35' 57.10" 1.000E-01 0.500 F 0.046 0.121 o 691 0.78 Yes No
2017YQ3 O C K 2017-12-29.34145 1.000E-05 09:45:56.410 1.500E-01 0.500 F 0.071 -0.400 +03° 27' 58.00" 1.000E-01 0.500 F 0.228 -0.124 20.5 R 0.70 -0.69 o 691 0.84 Yes Yes
2017XH62 O C K 2017-12-29.35180 1.000E-05 10:41:20.950 1.500E-01 0.500 F -0.011 0.483 +15° 02' 51.40" 1.000E-01 0.500 F 0.198 0.029 o 691 0.97 Yes No
2017YQ3 O C K 2017-12-29.35977 1.000E-05 09:45:55.370 1.500E-01 0.500 F 0.071 0.026 +03° 27' 54.70" 1.000E-01 0.500 F 0.228 0.235 20.2 R 0.70 -0.99 o 691 0.48 Yes Yes
2017XH62 O C K 2017-12-29.37013 1.000E-05 10:41:25.010 1.500E-01 0.500 F -0.011 -0.123 +15° 02' 51.60" 1.000E-01 0.500 F 0.198 0.050 o 691 0.27 Yes No
2017YQ3 O C K 2017-12-29.37819 1.000E-05 09:45:54.290 1.500E-01 0.500 F 0.071 0.042 +03° 27' 50.80" 1.000E-01 0.500 F 0.228 0.015 20.7 R 0.70 -0.49 o 691 0.09 Yes Yes
2017XH62 O C K 2017-12-29.38865 1.000E-05 10:41:29.170 1.500E-01 0.500 F -0.011 0.238 +15° 02' 51.70" 1.000E-01 0.500 F 0.198 0.010 o 691 0.48 Yes No
2017XJ61 O C K 2017-12-29.53607 1.000E-05 13:46:02.690 1.500E-01 0.500 F 0.280 -0.005 +11° 19' 09.80" 1.000E-01 0.500 F 0.214 0.458 o 691 0.98 Yes No
2017WC29 O C K 2017-12-29.53998 1.000E-05 13:58:13.050 1.500E-01 0.500 F 0.200 0.080 -16° 04' 43.50" 1.000E-01 0.500 F 0.197 0.092 o 691 0.24 Yes No
2017WC29 O C K 2017-12-29.54791 1.000E-05 13:58:14.950 1.500E-01 0.500 F 0.200 0.094 -16° 04' 59.80" 1.000E-01 0.500 F 0.197 0.331 o 691 0.69 Yes No
2017XJ61 O C K 2017-12-29.55197 1.000E-05 13:46:07.340 1.500E-01 0.500 F 0.280 0.125 +11° 18' 21.80" 1.000E-01 0.500 F 0.214 -0.459 o 691 1.05 Yes No
2017WC29 O C K 2017-12-29.55583 1.000E-05 13:58:16.870 1.500E-01 0.500 F 0.200 0.434 -16° 05' 17.30" 1.000E-01 0.500 F 0.197 -0.654 o 691 1.58 Yes No
1999KX4 O C 2017-12-30.20730 1.000E-05 01:25:36.650 1.500E-01 0.500 F -0.222 -0.231 -10° 32' 29.00" 1.000E-01 0.500 F 0.137 0.105 19.8 V 0.70 -0.05 o 691 0.51 Yes Yes
1999KX4 O C 2017-12-30.21406 1.000E-05 01:25:36.880 1.500E-01 0.500 F -0.170 -0.332 -10° 32' 21.10" 1.000E-01 0.500 F 0.128 -0.097 19.8 V 0.70 -0.05 o 691 0.69 Yes Yes
1999KX4 O C 2017-12-30.22081 1.000E-05 01:25:37.110 1.500E-01 0.500 F -0.170 -0.386 -10° 32' 13.10" 1.000E-01 0.500 F 0.128 -0.197 20.2 V 0.70 0.35 o 691 0.87 Yes Yes
2017UR7 O C 2017-12-30.22980 1.000E-05 01:41:10.150 1.500E-01 0.500 F -0.263 -0.165 +04° 03' 51.10" 1.000E-01 0.500 F 0.130 0.217 19.9 V 0.70 0.20 o 691 0.55 Yes Yes
2017UR7 O C 2017-12-30.23656 1.000E-05 01:41:11.410 1.500E-01 0.500 F -0.263 -0.964 +04° 04' 06.90" 1.000E-01 0.500 F 0.130 0.034 20.2 V 0.70 0.50 o 691 1.94 Yes Yes
2017UR7 O C 2017-12-30.24332 1.000E-05 01:41:12.770 1.500E-01 0.500 F -0.263 -0.301 +04° 04' 23.20" 1.000E-01 0.500 F 0.130 0.351 20.1 V 0.70 0.40 o 691 0.93 Yes Yes
2017WY12 O C 2017-12-30.28479 1.000E-05 06:20:30.310 1.500E-01 0.500 F -0.086 -0.352 -25° 06' 50.60" 1.000E-01 0.500 F 0.042 -0.221 19.9 V 0.70 -0.05 o 691 0.87 Yes Yes
2017WY12 O C 2017-12-30.29180 1.000E-05 06:20:31.510 1.500E-01 0.500 F -0.086 -0.414 -25° 06' 51.30" 1.000E-01 0.500 F 0.042 -0.195 19.8 V 0.70 -0.15 o 691 0.95 Yes Yes
2017WY12 O C 2017-12-30.29882 1.000E-05 06:20:32.760 1.500E-01 0.500 F -0.086 0.184 -25° 06' 52.00" 1.000E-01 0.500 F 0.042 -0.203 19.8 V 0.70 -0.15 o 691 0.57 Yes Yes
2009EV O C 2017-12-30.36239 1.000E-05 10:09:56.960 1.500E-01 0.500 F 0.135 -0.328 -16° 35' 48.10" 1.000E-01 0.500 F 0.023 -0.322 20.0 V 0.70 -0.05 o 691 0.93 Yes Yes
2009EV O C 2017-12-30.37232 1.000E-05 10:09:56.000 1.500E-01 0.500 F 0.135 -0.512 -16° 35' 19.30" 1.000E-01 0.500 F 0.023 -0.008 19.8 V 0.70 -0.25 o 691 1.03 Yes Yes
2009EV O C 2017-12-30.38222 1.000E-05 10:09:55.090 1.500E-01 0.500 F 0.135 0.027 -16° 34' 51.00" 1.000E-01 0.500 F 0.023 -0.132 19.8 V 0.70 -0.25 o 691 0.27 Yes Yes
2009QL8 O C 2017-12-30.41936 1.000E-05 13:22:15.150 1.500E-01 0.500 F 0.071 -0.251 +04° 18' 58.10" 1.000E-01 0.500 F 0.134 -0.468 19.3 V 0.70 1.15 o 691 1.09 Yes Yes
2017YC8 O C 2017-12-30.42685 1.000E-05 11:56:42.700 1.500E-01 0.500 F 0.226 -0.280 +23° 43' 11.70" 1.000E-01 0.500 F 0.168 -0.450 19.4 V 0.70 -0.30 o 691 1.07 Yes Yes
2009QL8 O C 2017-12-30.42923 1.000E-05 13:22:12.180 1.500E-01 0.500 F 0.123 -0.457 +04° 19' 31.90" 1.000E-01 0.500 F 0.200 0.362 19.9 V 0.70 1.75 o 691 1.22 Yes Yes
2017YC8 O C 2017-12-30.43668 1.000E-05 11:56:44.150 1.500E-01 0.500 F 0.226 0.023 +23° 42' 43.00" 1.000E-01 0.500 F 0.168 -0.085 19.7 V 0.70 0.00 o 691 0.18 Yes Yes
2009QL8 O C 2017-12-30.43905 1.000E-05 13:22:09.240 1.500E-01 0.500 F 0.123 -0.216 +04° 20' 04.70" 1.000E-01 0.500 F 0.200 0.451 19.9 V 0.70 1.75 o 691 1.04 Yes Yes
2017YC8 O C 2017-12-30.44650 1.000E-05 11:56:45.570 1.500E-01 0.500 F 0.226 -0.028 +23° 42' 14.20" 1.000E-01 0.500 F 0.168 0.185 20.1 V 0.70 0.40 o 691 0.38 Yes Yes
2000QK130 O C H 2017-12-30.47216 1.000E-05 08:16:57.180 1.500E-01 0.500 F -0.023 -0.017 +04° 30' 49.50" 1.000E-01 0.500 F 0.046 -0.136 20.7 R 0.70 0.33 o 691 0.28 Yes Yes
2017YF7 O C K 2017-12-30.47651 1.000E-05 09:26:41.720 1.500E-01 0.500 F 0.187 0.007 +29° 01' 41.50" 1.000E-01 0.500 F 0.163 1.035 19.0 R 0.70 -1.38 o 691 2.12 Yes Yes
2000QK130 O C H 2017-12-30.48262 1.000E-05 08:16:56.340 1.500E-01 0.500 F -0.023 -0.068 +04° 30' 46.80" 1.000E-01 0.500 F 0.046 -0.106 21.0 R 0.70 0.63 o 691 0.25 Yes Yes
2017YF7 O C K 2017-12-30.48682 1.000E-05 09:26:41.900 1.500E-01 0.500 F 0.187 -0.136 +29° 01' 10.00" 1.000E-01 0.500 F 0.163 -0.087 19.5 R 0.70 -0.87 o 691 0.33 Yes Yes
2000QK130 O C H 2017-12-30.49282 1.000E-05 08:16:55.540 1.500E-01 0.500 F -0.023 0.129 +04° 30' 44.30" 1.000E-01 0.500 F 0.046 0.058 20.6 R 0.70 0.23 o 691 0.28 Yes Yes
2017YF7 O C K 2017-12-30.49703 1.000E-05 09:26:42.130 1.500E-01 0.500 F 0.187 0.323 +29° 00' 39.90" 1.000E-01 0.500 F 0.163 0.013 19.7 R 0.70 -0.67 o 691 0.66 Yes Yes
2017YU3 O C K 2017-12-30.50525 1.000E-05 07:46:57.820 1.500E-01 0.500 F -0.078 -0.309 +23° 21' 42.70" 1.000E-01 0.500 F 0.234 0.133 19.1 R 0.70 -0.84 o 691 0.70 Yes Yes
2017XV2 O C 2017-12-30.50896 1.000E-05 07:55:04.890 1.500E-01 0.500 F -0.026 -0.196 +27° 46' 06.80" 1.000E-01 0.500 F 0.259 0.016 19.4 V 0.70 0.09 o 691 0.40 Yes Yes
2017YU3 O C K 2017-12-30.51210 1.000E-05 07:46:56.340 1.500E-01 0.500 F -0.078 0.120 +23° 22' 07.30" 1.000E-01 0.500 F 0.234 -0.119 19.2 R 0.70 -0.74 o 691 0.35 Yes Yes
2017XV2 O C 2017-12-30.51581 1.000E-05 07:55:05.510 1.500E-01 0.500 F -0.026 -0.201 +27° 46' 10.20" 1.000E-01 0.500 F 0.259 0.043 19.4 V 0.70 0.09 o 691 0.41 Yes Yes
2017YU3 O C K 2017-12-30.51896 1.000E-05 07:46:54.810 1.500E-01 0.500 F -0.078 -0.180 +23° 22' 32.20" 1.000E-01 0.500 F 0.234 -0.101 19.5 R 0.70 -0.44 o 691 0.42 Yes Yes
2017XV2 O C 2017-12-30.52266 1.000E-05 07:55:06.140 1.500E-01 0.500 F -0.026 -0.110 +27° 46' 13.20" 1.000E-01 0.500 F 0.259 -0.317 19.4 V 0.70 0.09 o 691 0.67 Yes Yes
2016CL32 O C 2017-12-30.53245 1.000E-05 13:16:18.450 1.500E-01 0.500 F 0.312 -0.382 -29° 38' 41.00" 1.000E-01 0.500 F 0.273 -0.943 19.4 V 0.70 0.44 o 691 2.08 Yes Yes
2016CL32 O C 2017-12-30.54195 1.000E-05 13:16:16.780 1.500E-01 0.500 F 0.312 -0.339 -29° 37' 37.60" 1.000E-01 0.500 F 0.273 0.725 20.1 V 0.70 1.14 o 691 1.64 Yes Yes
2016CL32 O C 2017-12-30.55094 1.000E-05 13:16:15.230 1.500E-01 0.500 F 0.312 0.129 -29° 36' 40.00" 1.000E-01 0.500 F 0.273 -0.163 19.6 V 0.70 0.64 o 691 0.42 Yes Yes
2017WG2 O C K 2018-01-05.09087 1.000E-05 00:38:03.680 1.500E-01 0.500 F -0.311 -0.211 -08° 07' 59.90" 1.000E-01 0.500 F 0.116 0.174 19.3 R 0.70 -0.40 o 691 0.58 Yes Yes
2017VX1 O C 2018-01-05.09427 1.000E-05 00:41:30.120 1.500E-01 0.500 F -0.196 -0.090 +22° 51' 32.60" 1.000E-01 0.500 F 0.350 0.032 19.7 V 0.70 -0.10 o 691 0.19 Yes Yes
2017WG2 O C K 2018-01-05.09934 1.000E-05 00:37:59.690 1.500E-01 0.500 F -0.311 0.409 -08° 07' 48.30" 1.000E-01 0.500 F 0.116 0.065 19.7 R 0.70 0.00 o 691 0.88 Yes Yes
2017VX1 O C 2018-01-05.10268 1.000E-05 00:41:30.270 1.500E-01 0.500 F -0.196 -0.230 +22° 51' 18.90" 1.000E-01 0.500 F 0.350 0.035 19.7 V 0.70 -0.10 o 691 0.47 Yes Yes
2017WG2 O C K 2018-01-05.10775 1.000E-05 00:37:55.660 1.500E-01 0.500 F -0.311 -0.023 -08° 07' 36.70" 1.000E-01 0.500 F 0.116 0.025 19.9 R 0.70 0.19 o 691 0.07 Yes Yes
2017VX1 O C 2018-01-05.11108 1.000E-05 00:41:30.470 1.500E-01 0.500 F -0.196 0.295 +22° 51' 04.60" 1.000E-01 0.500 F 0.350 -0.546 19.6 V 0.70 -0.20 o 691 1.24 Yes Yes
2003YX1 O C 2018-01-05.11430 1.000E-05 01:26:52.630 1.500E-01 0.500 F -0.253 -0.252 +11° 49' 55.50" 1.000E-01 0.500 F 0.340 -0.245 20.1 V 0.70 0.40 o 691 0.73 Yes Yes
2017SS19 O C 2018-01-05.11719 1.000E-05 01:50:41.720 1.500E-01 0.500 F -0.167 -0.083 -04° 37' 51.80" 1.000E-01 0.500 F 0.069 -0.050 19.8 V 0.70 0.26 o 691 0.20 Yes Yes
2017NU6 O C K 2018-01-05.11967 1.000E-05 02:11:25.140 1.500E-01 0.500 F -0.305 -0.123 -10° 40' 18.30" 1.000E-01 0.500 F 0.221 -0.125 19.4 R 0.70 -0.64 o 691 0.35 Yes Yes
2017WW12 O C K 2018-01-05.12241 1.000E-05 02:33:52.220 1.500E-01 0.500 F -0.314 0.382 -20° 49' 01.30" 1.000E-01 0.500 F -0.079 -0.598 21.1 R 0.70 0.13 o 691 1.44 Yes Yes
2003YX1 O C 2018-01-05.12967 1.000E-05 01:26:57.290 1.500E-01 0.500 F -0.253 -0.079 +11° 50' 48.90" 1.000E-01 0.500 F 0.340 0.226 19.7 V 0.70 0.00 o 691 0.48 Yes Yes
2017SS19 O C 2018-01-05.13242 1.000E-05 01:50:46.750 1.500E-01 0.500 F -0.167 0.046 -04° 37' 46.90" 1.000E-01 0.500 F 0.069 -0.112 20.0 V 0.70 0.46 o 691 0.24 Yes Yes
2017NU6 O C K 2018-01-05.13491 1.000E-05 02:11:29.550 1.500E-01 0.500 F -0.305 0.022 -10° 39' 47.70" 1.000E-01 0.500 F 0.221 0.009 19.8 R 0.70 -0.24 o 691 0.05 Yes Yes
2017WW12 O C K 2018-01-05.13764 1.000E-05 02:33:54.460 1.500E-01 0.500 F -0.314 -0.200 -20° 49' 11.40" 1.000E-01 0.500 F -0.079 0.133 o 691 0.49 Yes No
2003YX1 O C 2018-01-05.14491 1.000E-05 01:27:01.890 1.500E-01 0.500 F -0.253 -0.291 +11° 51' 40.80" 1.000E-01 0.500 F 0.340 -0.245 19.8 V 0.70 0.10 o 691 0.80 Yes Yes
2017SS19 O C 2018-01-05.14759 1.000E-05 01:50:51.730 1.500E-01 0.500 F -0.167 -0.316 -04° 37' 41.60" 1.000E-01 0.500 F 0.069 0.226 19.5 V 0.70 -0.04 o 691 0.78 Yes Yes
2017NU6 O C K 2018-01-05.15007 1.000E-05 02:11:33.920 1.500E-01 0.500 F -0.305 -0.092 -10° 39' 17.00" 1.000E-01 0.500 F 0.221 0.377 19.6 R 0.70 -0.44 o 691 0.78 Yes Yes
2017WW12 O C K 2018-01-05.15282 1.000E-05 02:33:56.770 1.500E-01 0.500 F -0.314 0.288 -20° 49' 22.20" 1.000E-01 0.500 F -0.079 0.073 o 691 0.60 Yes No
2017XT61 O C K 2018-01-05.19245 1.000E-05 01:53:46.860 1.500E-01 0.500 F -0.220 -0.010 +11° 49' 37.20" 1.000E-01 0.500 F 0.344 0.024 18.1 R 0.70 0.01 o 691 0.06 Yes Yes
2017XT61 O C K 2018-01-05.19342 1.000E-05 01:53:45.270 1.500E-01 0.500 F -0.220 -0.164 +11° 49' 22.40" 1.000E-01 0.500 F 0.344 0.191 17.9 R 0.70 -0.19 o 691 0.56 Yes Yes
2017XT61 O C K 2018-01-05.19440 1.000E-05 01:53:43.680 1.500E-01 0.500 F -0.220 -0.079 +11° 49' 07.20" 1.000E-01 0.500 F 0.344 0.117 18.0 R 0.70 -0.09 o 691 0.31 Yes Yes
2017XG2 O C K 2018-01-05.19555 1.000E-05 01:50:18.880 1.500E-01 0.500 F -0.091 -0.226 +11° 00' 02.10" 1.000E-01 0.500 F 0.339 0.171 19.7 R 0.70 -0.33 o 691 0.58 Yes Yes
2014WG365 O C K 2018-01-05.20118 1.000E-05 01:37:44.720 1.500E-01 0.500 F -0.147 -0.255 +25° 04' 53.90" 1.000E-01 0.500 F 0.330 0.062 o 691 0.53 Yes No
2017XG2 O C K 2018-01-05.21044 1.000E-05 01:50:17.310 1.500E-01 0.500 F -0.091 0.236 +10° 59' 13.00" 1.000E-01 0.500 F 0.339 0.455 18.8 R 0.70 -1.23 o 691 1.04 Yes Yes
2014WG365 O C K 2018-01-05.21596 1.000E-05 01:37:43.260 1.500E-01 0.500 F -0.147 -0.391 +25° 05' 21.40" 1.000E-01 0.500 F 0.330 0.228 o 691 0.91 Yes No
2017XG2 O C K 2018-01-05.22519 1.000E-05 01:50:15.730 1.500E-01 0.500 F -0.091 0.040 +10° 58' 23.70" 1.000E-01 0.500 F 0.339 0.148 19.1 R 0.70 -0.93 o 691 0.31 Yes Yes
2014WG365 O C K 2018-01-05.23066 1.000E-05 01:37:41.820 1.500E-01 0.500 F -0.147 -0.473 +25° 05' 48.30" 1.000E-01 0.500 F 0.330 -0.016 o 691 0.95 Yes No
2017RH15 O C 2018-01-05.23877 1.000E-05 03:18:01.010 1.500E-01 0.500 F -0.217 -0.387 +10° 19' 34.80" 1.000E-01 0.500 F 0.240 -0.029 19.8 V 0.70 -0.20 o 691 0.79 Yes Yes
2017XB1 O C 2018-01-05.24115 1.000E-05 03:11:54.250 1.500E-01 0.500 F -0.314 -0.025 +22° 09' 36.40" 1.000E-01 0.500 F 0.296 0.251 20.8 V 0.70 0.71 o 691 0.52 Yes Yes
2017RH15 O C 2018-01-05.24827 1.000E-05 03:18:04.450 1.500E-01 0.500 F -0.217 -0.090 +10° 20' 03.30" 1.000E-01 0.500 F 0.240 0.122 19.7 V 0.70 -0.30 o 691 0.31 Yes Yes
2017XB1 O C 2018-01-05.25058 1.000E-05 03:11:54.320 1.500E-01 0.500 F -0.314 0.196 +22° 10' 25.90" 1.000E-01 0.500 F 0.296 0.197 20.2 V 0.70 0.11 o 691 0.57 Yes Yes
2017RH15 O C 2018-01-05.25764 1.000E-05 03:18:07.790 1.500E-01 0.500 F -0.217 -0.696 +10° 20' 30.70" 1.000E-01 0.500 F 0.240 -0.398 20.0 V 0.70 0.00 o 691 1.64 Yes Yes
2017XB1 O C 2018-01-05.25993 1.000E-05 03:11:54.360 1.500E-01 0.500 F -0.261 -0.141 +22° 11' 14.50" 1.000E-01 0.500 F 0.302 -0.299 20.2 V 0.70 0.11 o 691 0.68 Yes Yes
2017XD62 O C 2018-01-05.26742 1.000E-05 03:59:10.780 1.500E-01 0.500 F -0.182 -0.553 +14° 49' 11.30" 1.000E-01 0.500 F 0.111 -0.564 21.1 V 0.70 -0.24 o 691 1.58 Yes Yes
2017XD62 O C 2018-01-05.27881 1.000E-05 03:59:10.830 1.500E-01 0.500 F -0.182 -0.240 +14° 48' 57.50" 1.000E-01 0.500 F 0.111 -0.075 21.6 V 0.70 0.26 o 691 0.50 Yes Yes
2017XD62 O C 2018-01-05.29013 1.000E-05 03:59:10.870 1.500E-01 0.500 F -0.182 -0.102 +14° 48' 43.70" 1.000E-01 0.500 F 0.111 0.331 21.1 V 0.70 -0.24 o 691 0.69 Yes Yes
2017YW3 O C 2018-01-05.31101 1.000E-05 05:47:28.300 1.500E-01 0.500 F -0.030 -0.379 +10° 28' 37.30" 1.000E-01 0.500 F 0.147 1.435 19.8 V 0.70 -0.23 o 691 3.09 Yes Yes
2017YW3 O C 2018-01-05.32242 1.000E-05 05:47:30.610 1.500E-01 0.500 F -0.030 -0.035 +10° 28' 11.60" 1.000E-01 0.500 F 0.147 -0.059 19.7 V 0.70 -0.34 o 691 0.14 Yes Yes

[1-200] [201-400] [401-600] [601-800] [801-1000] [1001-1200] [1201-1400] [1401-1600] [1601-1800] [1801-2000] [2001-2200] [2201-2400] [2401-2600] [2601-2800] [2801-3000] [3001-3200] [3201-3400] [3401-3600] [3601-3800] [3801-4000] [4001-4200] [4201-4400] [4401-4600] [4601-4800] [4801-5000] [5001-5200] [5201-5400] [5401-5600] [5601-5800] [5801-6000] [6001-6200] [6201-6400] [6401-6600] [6601-6800] [6801-7000] [7001-7200] [7201-7400] [7401-7600] [7601-7800] [7801-8000] [8001-8200] [8201-8400] [8401-8600] [8601-8800] [8801-9000] [9001-9200] [9201-9400] [9401-9600] [9601-9800] [9801-10000] [10001-10200] [10201-10400] [10401-10600] [10601-10800] [10801-11000] [11001-11200] [11201-11400] [11401-11600] [11601-11800] [11801-12000] [12001-12200] [12201-12400] [12401-12600] [12601-12800] [12801-13000] [13001-13200] [13201-13400] [13401-13600] [13601-13800] [13801-14000] [14001-14200] [14201-14400] [14401-14600] [14601-14800] [14801-15000] [15001-15200] [15201-15400] [15401-15600] [15601-15800] [15801-16000] [16001-16200] [16201-16400] [16401-16600] [16601-16800] [16801-17000] [17001-17200] [17201-17400] [17401-17600] [17601-17800] [17801-18000] [18001-18200] [18201-18400] [18401-18600] [18601-18800] [18801-19000] [19001-19200] [19201-19400] [19401-19600] [19601-19800] [19801-20000] [20001-20200] [20201-20400] [20401-20600] [20601-20800] [20801-21000] [21001-21200] [21201-21400] [21401-21600] [21601-21800] [21801-22000] [22001-22200] [22201-22400] [22401-22600] [22601-22800] [22801-23000] [23001-23200] [23201-23400] [23401-23600] [23601-23800] [23801-24000] [24001-24200] [24201-24400] [24401-24600] [24601-24800] [24801-25000] [25001-25200] [25201-25400] [25401-25600] [25601-25800] [25801-26000] [26001-26200] [26201-26400] [26401-26600] [26601-26800] [26801-27000] [27001-27200] [27201-27400] [27401-27600] [27601-27800] [27801-28000] [28001-28200] [28201-28400] [28401-28600] [28601-28800] [28801-29000] [29001-29200] [29201-29400] [29401-29600] [29601-29800] [29801-30000] [30001-30200] [30201-30400] [30401-30600] [30601-30800] [30801-31000] [31001-31200] [31201-31400] [31401-31600] [31601-31800] [31801-32000] [32001-32200] [32201-32400] [32401-32600] [32601-32800] [32801-33000] [33001-33200] [33201-33400] [33401-33600] [33601-33800] [33801-34000] [34001-34200] [34201-34400] [34401-34600] [34601-34800] [34801-35000] [35001-35200] [35201-35400] [35401-35600] [35601-35800] [35801-36000] [36001-36200] [36201-36400] [36401-36600] [36601-36800] [36801-37000] [37001-37200] [37201-37400] [37401-37600] [37601-37800] [37801-38000] [38001-38200] [38201-38400] [38401-38600] [38601-38800] [38801-39000] [39001-39200] [39201-39400] [39401-39600] [39601-39800] [39801-40000] [40001-40200] [40201-40400] [40401-40600] [40601-40800] [40801-41000] [41001-41200] [41201-41400] [41401-41600] [41601-41800] [41801-42000] [42001-42200] [42201-42400] [42401-42600] [42601-42800] [42801-43000] [43001-43200] [43201-43400] [43401-43600] [43601-43800] [43801-44000] [44001-44200] [44201-44400] [44401-44600] [44601-44800] [44801-45000] [45001-45200] [45201-45400] [45401-45600] [45601-45800] [45801-46000] [46001-46200] [46201-46400] [46401-46600] [46601-46800] [46801-47000] [47001-47200] [47201-47400] [47401-47600] [47601-47800] [47801-48000] [48001-48200] [48201-48400] [48401-48600] [48601-48800] [48801-49000] [49001-49200] [49201-49400] [49401-49600] [49601-49800] [49801-50000] [50001-50200] [50201-50400] [50401-50600] [50601-50741]